sat.trackr.live / text

‹ back to catalog

STARLINK-1411

NORAD 45706 · 2020-035BB

PAYLOAD ACTIVE UNKNOWN

§ Identity

Operator
Country
US
Launch date
2020-06-04
Launch site
AFETR
Launch vehicle
Mass (kg)
RCS (m²)

Purposes: comms

External: N2YO · Heavens-Above · Gunter

§ Orbital elements

Epoch: 2026-06-22T13:47:20.905728Z

Period
89.20 min
Inclination
53.0191°
Eccentricity
0.0006299
Mean motion
16.14350853 rev/d
Perigee alt
230.8 km
Apogee alt
239.1 km
Semi-major
6,613.1 km
B*
1.2966e-3
RAAN
176.4650°
Arg perigee
19.9602°
Mean anomaly
340.1679°
Rev number
33,648

§ Raw data

STARLINK-14111 45706U 20035BB  26173.57454752  .01631038  21957-2  12966-2 0  99942 45706  53.0191 176.4650 0006299  19.9602 340.1679 16.14350853336485

JSON: /api/v1/satellites/45706 · /tle

For live sub-satellite position, see the globe view (requires WebGL).

§ Visibility from observer

Set your observer location to see the next 7 days of passes ≥ 10°. The values pass through the URL so the page stays shareable.

No JS? Fill the form by hand. The geolocation button needs JavaScript.